sat.trackr.live / text

‹ back to catalog

CENTISPACE-1 S6

NORAD 54021 · 2022-126B

PAYLOAD ACTIVE UNKNOWN

§ Identity

Operator
Country
PRC
Launch date
2022-10-07
Launch site
SEAL
Launch vehicle
Mass (kg)
RCS (m²)

External: N2YO · Heavens-Above · Gunter

§ Orbital elements

Epoch: 2026-05-25T04:14:53.249280Z

Period
98.48 min
Inclination
54.9998°
Eccentricity
0.0015237
Mean motion
14.62252465 rev/d
Perigee alt
675.1 km
Apogee alt
696.7 km
Semi-major
7,064.0 km
B*
1.4445e-4
RAAN
306.7955°
Arg perigee
27.6594°
Mean anomaly
332.5208°
Rev number
19,363

§ Raw data

CENTISPACE-1 S61 54021U 22126B   26145.17700520  .00000546  00000+0  14445-3 0  99902 54021  54.9998 306.7955 0015237  27.6594 332.5208 14.62252465193636

JSON: /api/v1/satellites/54021 · /tle

For live sub-satellite position, see the globe view (requires WebGL).

§ Visibility from observer

Set your observer location to see the next 7 days of passes ≥ 10°. The values pass through the URL so the page stays shareable.

No JS? Fill the form by hand. The geolocation button needs JavaScript.

§ Radio — SatNOGS DB

ModeDescriptionDownlinkUplink
FM GNSS B1C 1.575 GHz
FM GNSS B2A 1.176 GHz
FM Telemetry 2.210 GHz

3 transmitters · refreshed weekly from db.satnogs.org